星链-3939 (STARLINK-3939 )

导读 | 豆包AI

STARLINK-3939是美国太空探索技术公司SpaceX星链卫星互联网项目的卫星,于2022年5月13日发射,属于星链星座组网卫星,旨在为全球提供高速低延迟互联网服务,是星链大规模部署计划中的组成部分,依托SpaceX可重复使用火箭技术完成发射入轨,服务全球卫星互联网组网建设。

Basic Information
目录编号:
52545
目录名称:
STARLINK-3939
国际标识:
2022-051N
轨道中心:
EARTH
卫星名称:
星链-3939
卫星全名:
星链-3939 (STARLINK-3939 )
卫星状态:
已陨落 最后检测时间 2024-05-25
发射日期:
2022-05-13 UTC
国别 :
美国 (US)
星等 :
--
Orbit Information
数据来源 国际轨道数据
星历时间: 2024-05-26T04:46:44+0800
轨道信息已过期703天
半长轴: 6540.047km
偏心率: 0.0002661
轨道倾角: 53.192°
近地点辐角 255.749°
升交点赤经 147.223°
平近点角 200.508°
近地点: 160.171km
远地点: 163.653km
周期: 87.727分钟
每日圈数: 16.414644
Detailed Information
固有亮度:
5
最大亮度:
2.5
卫星平台:
Starlink v1.5
覆盖范围:
全球
运营商:
太空探索技术公司
运营商所在国:
美国
制造商(研发单位):
太空探索技术公司
制造商所在国:
美国
使用方式:
暂无
Satellite Introduction
星链(Starlink)计划是由太空探索技术公司(SpaceX)提出的一个巨型低轨卫星互联网星座项目,计划在2019年至2024年间在太空搭建由约1.2万颗卫星组成的“星链”网络,其中1584颗将部署在地球上空550千米处的近地轨道,并从2020年开始工作。该卫星已陨落。